Regional Weather Roundup
Issued by NWS

Home | Current Version | Previous Version | Graphics & Text | Print | Product List | Glossary On
Versions: 1 2 3 4 5 6 7 8 9 10 11 12 13 14 15 16 17 18 19 20 21 22 23 24 25 26 27 28 29 30 31 32 33 34 35 36 37 38 39 40 41 42 43 44 45 46 47 48 49 50
000
ASUS43 KBIS 241202
RWRND

NORTH DAKOTA REGIONAL WEATHER ROUNDUP
NATIONAL WEATHER SERVICE BISMARCK ND
700 AM CDT WED AUG 24 2016

NOTE: "FAIR" INDICATES FEW OR NO CLOUDS BELOW 12,000 FEET WITH NO
SIGNIFICANT WEATHER AND/OR OBSTRUCTIONS TO VISIBILITY.


NDZ001>003-009>011-017-241300-
NORTHWEST NORTH DAKOTA

CITY           SKY/WX    TMP DP  RH WIND       PRES   REMARKS
WILLISTON      LGT RAIN  57  50  77 W17       29.98R
6HR MIN TEMP:  57; 6HR MAX TEMP:  61; 6HR PCP: TRACE;

MINOT          PTCLDY    56  49  77 SW10      29.91R
MINOT AFB      PTCLDY    55  49  81 SW12      29.89R
$$

NDZ018>021-031>035-040>046-241300-
SOUTHWEST NORTH DAKOTA

CITY           SKY/WX    TMP DP  RH WIND       PRES   REMARKS
BISMARCK       CLEAR     57  49  74 W14       29.99R
6HR MIN TEMP:  53; 6HR MAX TEMP:  60;

DICKINSON      CLEAR     52  47  83 W13       30.03R
GARRISON         N/A     53  49  86 W7        29.96R
6HR MIN TEMP:  53; 6HR MAX TEMP:  60;

HETTINGER ARPT CLEAR     52  47  83 W14       30.10R
$$

NDZ004>008-012>016-024-026-027-054-241300-
NORTHEAST NORTH DAKOTA

CITY           SKY/WX    TMP DP  RH WIND       PRES   REMARKS
GRAND FORKS    PTCLDY    57  51  80 SW8       29.81S
GRND FRKS AFB  PTCLDY    55  51  86 W8        29.82S
DEVILS LAKE    CLEAR     58  51  78 W17       29.87R
$$

NDZ022-023-025-028>030-036>039-047>053-241300-
SOUTHEAST NORTH DAKOTA

CITY           SKY/WX    TMP DP  RH WIND       PRES   REMARKS
FARGO          CLEAR     57  49  74 W8        29.87R
6HR MIN TEMP:  55; 6HR MAX TEMP:  73; 6HR PCP: TRACE;

JAMESTOWN      CLEAR     56  50  80 W12       29.92R
$$





USA.gov is the U.S. government's official web portal to all federal, state and local government web resources and services.